Del Norte, CO

6:20 PM MDT on August 28, 2016 (GMT -0600)
Wolf Creek Pass

Weather History for KCPW - May, 2014

Change the Weather History Date:

Monday, May 12, 2014

  Actual Average (KALS) Record (KALS)
Temperature  
Mean Temperature 19 °F 50 °F  
Max Temperature 24 °F 68 °F 82 °F (1984)
Min Temperature 14 °F 33 °F 17 °F (1953)
Degree Days  
Heating Degree Days 46 15  
Month to date heating degree days 198  
Since 1 July heating degree days 8198  
Cooling Degree Days 0 0  
Month to date cooling degree days 0  
Year to date cooling degree days 0  
Moisture  
Dew Point 19 °F    
Average Humidity 99    
Maximum Humidity 100    
Minimum Humidity 93    
Precipitation  
Precipitation 0.46 in 0.02 in 0.33 in (1965)
Month to date precipitation 0.25  
Year to date precipitation 1.89  
Snow  
Snow 0.00 in 0.10 in 0.70 in (1982)
Month to date snowfall 0.7  
Since 1 July snowfall 27.4  
Snow Depth -    
Sea Level Pressure  
Sea Level Pressure 30.08 in    
Wind  
Wind Speed 12 mph (SW)    
Max Wind Speed 30 mph    
Max Gust Speed 36 mph    
Visibility 1 miles    
Events Fog , Snow , Thunderstorm    
T = Trace of Precipitation, MM = Missing Value Source: NWS Daily Summary

Daily Weather History Graph

Daily Weather History Graph

Search for Another Location

Airport or City:

Trip Planner

Search our weather history database for the weather conditions in past years. The results will help you decide how hot, cold, wet, or windy it might be!

Date:

Astronomy

May. 12, 2014 Rise Set
Actual Time 6:00 AM MDT 8:06 PM MDT
Civil Twilight 5:31 AM MDT 8:36 PM MDT
Nautical Twilight 4:56 AM MDT 9:11 PM MDT
Astronomical Twilight 4:18 AM MDT 9:50 PM MDT
Moon 6:10 PM MDT (5/12) 4:38 AM MDT (5/12)
Length of Visible Light 15h 04m
Length of Day
14h 06m
Waxing Gibbous, 95% of the Moon is Illuminated
May 12
Waxing Gibbous
May 14
Full
May 21
Last Quarter
May 28
New
Jun 5
First Quarter

Hourly Weather History & Observations

Time (MDT) Temp. Windchill Dew Point Humidity Pressure Visibility Wind Dir Wind Speed Gust Speed Precip Events Conditions
12:01 AM 19.4 °F 4.5 °F 19.4 °F 100% 29.94 in 0.2 mi SW 17.3 mph 34.5 mph N/A Snow Snow
12:21 AM 19.4 °F 3.6 °F 19.4 °F 100% 29.95 in 0.2 mi SSW 19.6 mph 35.7 mph N/A Snow Heavy Snow
12:39 AM 19.4 °F 3.2 °F 19.4 °F 100% 29.96 in 0.2 mi SW 20.7 mph 31.1 mph N/A Snow Snow
12:51 AM 19.4 °F 3.2 °F 19.4 °F 100% 29.96 in 0.2 mi SW 20.7 mph 29.9 mph N/A Snow Snow
1:21 AM 19.4 °F 3.2 °F 19.4 °F 100% 29.97 in 0.2 mi SW 20.7 mph 27.6 mph N/A Snow Light Snow
1:36 AM 19.4 °F 4.5 °F 19.4 °F 100% 29.97 in 0.5 mi WSW 17.3 mph 23.0 mph 0.01 in Snow Light Snow
2:00 AM 19.4 °F 4.1 °F 19.4 °F 100% 29.97 in 0.2 mi SW 18.4 mph 21.9 mph N/A Snow Light Snow
2:18 AM 17.6 °F 5.0 °F 17.6 °F 100% 29.98 in 2.0 mi SW 11.5 mph 17.3 mph N/A Snow Light Snow
2:39 AM 17.6 °F 6.4 °F 17.6 °F 100% 29.98 in 3.0 mi SW 9.2 mph - N/A Snow Light Snow
3:00 AM 17.6 °F 6.4 °F 17.6 °F 100% 29.98 in 1.8 mi WSW 9.2 mph - N/A Snow Light Snow
3:21 AM 19.4 °F 7.9 °F 19.4 °F 100% 29.98 in 0.8 mi SW 10.4 mph - N/A Snow Light Snow
3:41 AM 17.6 °F 8.2 °F 17.6 °F 100% 29.99 in 1.8 mi WSW 6.9 mph - N/A Snow Light Snow
3:55 AM 17.6 °F 12.3 °F 17.6 °F 100% 29.99 in 5.0 mi WSW 3.5 mph - N/A Snow Light Snow
4:19 AM 17.6 °F 12.3 °F 17.6 °F 100% 30.00 in 4.0 mi WSW 3.5 mph - N/A   Overcast
4:40 AM 17.6 °F - 17.6 °F 100% 30.00 in 4.0 mi Calm Calm - N/A Snow Light Snow
4:59 AM 17.6 °F - 17.6 °F 100% 30.00 in 10.0 mi Calm Calm - N/A   Overcast
5:20 AM 15.8 °F - 15.8 °F 100% 30.00 in 10.0 mi Calm Calm - N/A   Mostly Cloudy
5:30 AM 17.6 °F - 15.8 °F 93% 30.00 in 10.0 mi Calm Calm - N/A   Overcast
5:48 AM 17.6 °F - 17.6 °F 100% 30.00 in 10.0 mi Calm Calm - N/A   Overcast
6:21 AM 17.6 °F 8.2 °F 17.6 °F 100% 30.01 in 0.2 mi NE 6.9 mph - N/A Fog Light Freezing Fog
6:38 AM 17.6 °F 12.3 °F 17.6 °F 100% 30.02 in 0.2 mi NE 3.5 mph - N/A Fog Light Freezing Fog
7:00 AM 17.6 °F 12.3 °F 17.6 °F 100% 30.02 in 0.2 mi ENE 3.5 mph - N/A Fog Light Freezing Fog
7:20 AM 17.6 °F 10.7 °F 17.6 °F 100% 30.03 in 0.2 mi NE 4.6 mph - N/A Fog Light Freezing Fog
7:41 AM 17.6 °F 8.2 °F 17.6 °F 100% 30.04 in 0.2 mi NE 6.9 mph - N/A Snow Light Snow
8:18 AM 17.6 °F 7.3 °F 17.6 °F 100% 30.05 in 0.2 mi NE 8.1 mph - N/A Snow Light Snow
8:41 AM 17.6 °F 7.3 °F 17.6 °F 100% 30.06 in 0.5 mi NE 8.1 mph - N/A Snow Light Snow
9:18 AM 19.4 °F 11.5 °F 19.4 °F 100% 30.07 in 4.0 mi NE 5.8 mph - N/A Snow Light Snow
9:39 AM 21.2 °F 13.6 °F 19.4 °F 93% 30.07 in 0.5 mi East 5.8 mph - 0.01 in Snow Light Snow
10:00 AM 21.2 °F 14.9 °F 21.2 °F 100% 30.08 in 0.8 mi East 4.6 mph - N/A Snow Light Snow
10:21 AM 21.2 °F 16.4 °F 21.2 °F 100% 30.09 in 1.0 mi ENE 3.5 mph - N/A Snow Light Snow
10:38 AM 21.2 °F - 21.2 °F 100% 30.09 in 0.8 mi Calm Calm - 0.01 in Snow Light Snow
10:53 AM 23.0 °F 15.8 °F 23.0 °F 100% 30.10 in 0.5 mi SSW 5.8 mph - 0.02 in Snow Light Snow
11:17 AM 24.8 °F 19.1 °F 24.8 °F 100% 30.10 in 1.2 mi West 4.6 mph - N/A Snow Light Snow
11:32 AM 23.0 °F 18.4 °F 23.0 °F 100% 30.11 in 0.5 mi South 3.5 mph - 0.01 in Snow Light Snow
11:57 AM 24.8 °F 16.1 °F 24.8 °F 100% 30.11 in 0.2 mi South 8.1 mph - 0.01 in Snow Light Snow
12:06 PM 24.8 °F 15.3 °F 24.8 °F 100% 30.11 in 0.5 mi SW 9.2 mph - N/A Snow Light Snow
12:38 PM 23.0 °F 12.4 °F 21.2 °F 93% 30.11 in 0.2 mi SSW 10.4 mph 20.7 mph 0.01 in Snow Light Snow
12:59 PM 23.0 °F 9.6 °F 21.2 °F 93% 30.11 in 0.2 mi SW 16.1 mph 25.3 mph 0.03 in Snow Light Snow
1:41 PM 23.0 °F 10.1 °F 21.2 °F 93% 30.11 in 0.2 mi SW 15.0 mph 25.3 mph 0.01 in Snow Snow
2:01 PM 23.0 °F 11.1 °F 23.0 °F 100% 30.11 in 0.2 mi SW 12.7 mph 26.5 mph N/A Snow Snow
2:20 PM 21.2 °F 6.4 °F 21.2 °F 100% 30.11 in 0.2 mi SSW 18.4 mph 31.1 mph 0.03 in Snow Snow
2:41 PM 23.0 °F 12.4 °F 21.2 °F 93% 30.12 in 0.2 mi SSW 10.4 mph 20.7 mph 0.05 in Snow Snow
2:57 PM 23.0 °F 9.2 °F 23.0 °F 100% 30.12 in 0.2 mi SW 17.3 mph 23.0 mph 0.06 in Snow , Thunderstorm Snow
3:19 PM 21.2 °F 3.9 °F 21.2 °F 100% 30.11 in 0.2 mi SSW 26.5 mph 33.4 mph 0.03 in Snow Snow
3:41 PM 21.2 °F 7.3 °F 21.2 °F 100% 30.11 in 0.2 mi SSW 16.1 mph 33.4 mph 0.03 in Snow Snow
4:01 PM 23.0 °F - 23.0 °F 100% 30.11 in 0.2 mi North - - N/A Snow Light Snow
4:20 PM 23.0 °F 11.1 °F 23.0 °F 100% 30.11 in 0.2 mi SW 12.7 mph 23.0 mph 0.01 in Snow Snow
4:38 PM 21.2 °F 7.3 °F 21.2 °F 100% 30.12 in 0.2 mi SSW 16.1 mph 25.3 mph 0.03 in Snow Snow
4:56 PM 23.0 °F 9.2 °F 21.2 °F 93% 30.11 in 0.2 mi SSW 17.3 mph 29.9 mph 0.04 in Snow Snow
5:21 PM 21.2 °F - 21.2 °F 100% 30.12 in 0.2 mi North - - 0.01 in Snow Snow
5:37 PM 21.2 °F 6.8 °F 21.2 °F 100% 30.12 in 0.2 mi SW 17.3 mph 25.3 mph 0.02 in Snow Light Snow
5:58 PM 21.2 °F 7.3 °F 21.2 °F 100% 30.13 in 0.2 mi SSW 16.1 mph 25.3 mph 0.04 in Snow Heavy Snow
6:19 PM 21.2 °F 9.5 °F 21.2 °F 100% 30.13 in 0.2 mi SW 11.5 mph - N/A Snow Snow
6:38 PM 21.2 °F 7.3 °F 21.2 °F 100% 30.13 in 0.2 mi SSW 16.1 mph - 0.06 in Snow Heavy Snow
6:58 PM 19.4 °F 2.5 °F 19.4 °F 100% 30.13 in 0.2 mi WSW 23.0 mph 31.1 mph 0.06 in Snow Light Snow
7:18 PM 19.4 °F 4.1 °F 19.4 °F 100% 30.14 in 0.2 mi SW 18.4 mph 26.5 mph N/A Snow Snow
7:35 PM 19.4 °F 2.5 °F 19.4 °F 100% 30.15 in 0.2 mi WSW 23.0 mph 31.1 mph 0.01 in Snow Snow
8:01 PM 17.6 °F -1.9 °F 17.6 °F 100% 30.15 in 0.2 mi SW 29.9 mph 35.7 mph N/A Snow Snow
8:20 PM 19.4 °F 2.5 °F 19.4 °F 100% 30.17 in 0.2 mi SW 23.0 mph 33.4 mph 0.01 in Snow Snow
8:41 PM 19.4 °F 3.6 °F 17.6 °F 93% 30.19 in 0.8 mi SW 19.6 mph 29.9 mph 0.01 in Snow Light Snow
9:17 PM 19.4 °F 14.3 °F 19.4 °F 100% 30.22 in 0.5 mi SW 3.5 mph - 0.03 in Snow Heavy Snow
9:39 PM 17.6 °F 7.3 °F 17.6 °F 100% 30.22 in 0.5 mi NNE 8.1 mph - 0.08 in Snow Heavy Snow
10:00 PM 17.6 °F 6.4 °F 17.6 °F 100% 30.22 in 0.2 mi NE 9.2 mph - N/A Snow Heavy Snow
10:19 PM 15.8 °F 1.4 °F 15.8 °F 100% 30.22 in 1.0 mi NE 13.8 mph - 0.02 in Snow Snow
10:41 PM 15.8 °F 1.4 °F 15.8 °F 100% 30.22 in 1.5 mi NE 13.8 mph - 0.03 in Snow Light Snow
10:56 PM 14.0 °F -0.2 °F 14.0 °F 100% 30.22 in 2.0 mi NE 12.7 mph - 0.03 in Snow Light Snow
11:20 PM 14.0 °F -2.5 °F 14.0 °F 100% 30.22 in 1.5 mi NE 17.3 mph 21.9 mph 0.01 in Snow Light Snow
11:32 PM 14.0 °F -2.5 °F 14.0 °F 100% 30.22 in 0.5 mi NE 17.3 mph - 0.01 in Snow Snow